Weather History for Ionia, MI

Change the Weather History Date:

Sunday, November 10, 2013

  Actual Average (KGRR) Record (KGRR)
Temperature  
Mean Temperature 40 °F 42 °F  
Max Temperature 48 °F 50 °F 67 °F (1999)
Min Temperature 33 °F 35 °F 16 °F (1957)
Degree Days  
Heating Degree Days 24 23  
Month to date heating degree days 209  
Since 1 July heating degree days 801  
Cooling Degree Days 0 0  
Month to date cooling degree days 0  
Year to date cooling degree days 699  
Moisture  
Dew Point 30 °F    
Average Humidity 64    
Maximum Humidity 84    
Minimum Humidity 47    
Precipitation  
Precipitation 0.00 in 0.11 in 1.37 in (1998)
Month to date precipitation 1.19  
Year to date precipitation 33.45  
Snow  
Snow 0.00 in 0.20 in 3.60 in (1943)
Month to date snowfall 1.2  
Since 1 July snowfall 1.7  
Since 1 September snowfall 1.7  
Snow Depth -    
Sea Level Pressure  
Sea Level Pressure 30.12 in    
Wind  
Wind Speed 15 mph (West)    
Max Wind Speed 28 mph    
Max Gust Speed 36 mph    
Visibility 10 miles    
Events      
T = Trace of Precipitation, MM = Missing Value Source: NWS Daily Summary

Daily Weather History Graph

Daily Weather History Graph

Search for Another Location

Airport:

Trip Planner

Search our weather history database for the weather conditions in past years. The results will help you decide how hot, cold, wet, or windy it might be!

Date:

Astronomy

Nov. 10, 2013 Rise Set
Actual Time 7:26 AM EST 5:21 PM EST
Civil Twilight 6:56 AM EST 5:51 PM EST
Nautical Twilight 6:22 AM EST 6:25 PM EST
Astronomical Twilight 5:48 AM EST 6:58 PM EST
Moon 1:36 PM EST (11/10) No Moon Set
Length of Visible Light 10h 55m
Length of Day
9h 55m
First Quarter, 55% of the Moon is Illuminated
Nov 10
First Quarter
Nov 17
Full
Nov 25
Last Quarter
Dec 2
New
Dec 9
First Quarter

Hourly Weather History & Observations

Time (EST) Temp. Windchill Dew Point Humidity Pressure Visibility Wind Dir Wind Speed Gust Speed Precip Events Conditions
12:14 AM 44.8 °F 40.4 °F 34.0 °F 66% 29.89 in 10.0 mi West 8.1 mph - N/A   Overcast
12:34 AM 45.0 °F 37.9 °F 34.3 °F 66% 29.90 in 10.0 mi West 16.1 mph 25.3 mph N/A   Overcast
12:54 AM 45.1 °F 36.4 °F 32.2 °F 60% 29.90 in 10.0 mi West 24.2 mph 35.7 mph N/A   Overcast
1:14 AM 44.6 °F 36.9 °F 32.0 °F 61% 29.91 in 10.0 mi West 18.4 mph 28.8 mph N/A   Overcast
1:34 AM 43.9 °F 34.1 °F 30.2 °F 59% 29.92 in 10.0 mi West 27.6 mph 35.7 mph N/A   Overcast
1:54 AM 43.3 °F 35.0 °F 28.9 °F 57% 29.92 in 10.0 mi WNW 19.6 mph 33.4 mph N/A   Overcast
2:14 AM 43.0 °F 35.4 °F 28.0 °F 56% 29.92 in 10.0 mi WNW 16.1 mph 32.2 mph N/A   Overcast
2:34 AM 42.6 °F 35.2 °F 27.3 °F 55% 29.93 in 10.0 mi WNW 15.0 mph 21.9 mph N/A   Overcast
2:54 AM 42.3 °F 33.3 °F 27.5 °F 56% 29.94 in 10.0 mi WNW 20.7 mph 28.8 mph N/A   Overcast
3:14 AM 41.9 °F 33.4 °F 28.4 °F 59% 29.95 in 10.0 mi WNW 18.4 mph 26.5 mph N/A   Overcast
3:34 AM 41.9 °F 33.1 °F 28.9 °F 60% 29.95 in 10.0 mi WNW 19.6 mph 26.5 mph N/A   Overcast
3:54 AM 41.9 °F 33.1 °F 29.3 °F 61% 29.96 in 10.0 mi WNW 19.6 mph 25.3 mph N/A   Overcast
4:14 AM 41.9 °F 34.3 °F 29.3 °F 61% 29.97 in 10.0 mi WNW 15.0 mph 21.9 mph N/A   Overcast
4:34 AM 41.9 °F 32.6 °F 29.8 °F 62% 29.98 in 10.0 mi WNW 21.9 mph 28.8 mph N/A   Overcast
4:54 AM 41.9 °F 33.1 °F 29.8 °F 62% 29.99 in 10.0 mi WNW 19.6 mph 28.8 mph N/A   Overcast
5:14 AM 41.5 °F 33.5 °F 30.0 °F 64% 29.99 in 10.0 mi WNW 16.1 mph 28.8 mph N/A   Overcast
5:34 AM 41.5 °F 32.4 °F 30.2 °F 64% 30.00 in 10.0 mi WNW 20.7 mph 25.3 mph N/A   Overcast
5:54 AM 41.4 °F 33.3 °F 30.2 °F 65% 30.01 in 10.0 mi WNW 16.1 mph - N/A   Overcast
6:14 AM 41.4 °F 33.0 °F 30.0 °F 64% 30.02 in 10.0 mi WNW 17.3 mph 23.0 mph N/A   Overcast
6:34 AM 41.4 °F 33.6 °F 29.8 °F 64% 30.04 in 10.0 mi WNW 15.0 mph 24.2 mph N/A   Overcast
6:54 AM 41.4 °F 33.0 °F 29.7 °F 63% 30.04 in 10.0 mi WNW 17.3 mph 23.0 mph N/A   Overcast
7:14 AM 41.4 °F 33.3 °F 29.7 °F 63% 30.05 in 10.0 mi WNW 16.1 mph 24.2 mph N/A   Overcast
7:34 AM 41.4 °F 33.0 °F 29.7 °F 63% 30.06 in 10.0 mi WNW 17.3 mph 23.0 mph N/A   Overcast
7:54 AM 41.5 °F 33.5 °F 29.8 °F 63% 30.08 in 10.0 mi WNW 16.1 mph 26.5 mph N/A   Overcast
8:14 AM 41.5 °F 33.5 °F 30.2 °F 64% 30.08 in 10.0 mi WNW 16.1 mph 24.2 mph N/A   Overcast
8:34 AM 41.7 °F 32.9 °F 30.4 °F 64% 30.09 in 10.0 mi WNW 19.6 mph 23.0 mph N/A   Overcast
8:54 AM 41.9 °F 34.0 °F 30.7 °F 65% 30.10 in 10.0 mi WNW 16.1 mph - N/A   Overcast
9:14 AM 42.3 °F 33.8 °F 30.9 °F 64% 30.10 in 10.0 mi WNW 18.4 mph 24.2 mph N/A   Overcast
9:34 AM 42.4 °F 34.7 °F 31.1 °F 64% 30.12 in 10.0 mi WNW 16.1 mph 21.9 mph N/A   Overcast
9:54 AM 43.0 °F 34.5 °F 30.9 °F 62% 30.13 in 10.0 mi WNW 19.6 mph 29.9 mph N/A   Overcast
10:14 AM 44.6 °F 37.2 °F 31.5 °F 60% 30.15 in 10.0 mi WNW 17.3 mph 27.6 mph N/A   Mostly Cloudy
10:34 AM 44.8 °F 36.9 °F 31.6 °F 60% 30.15 in 10.0 mi WNW 19.6 mph 28.8 mph N/A   Scattered Clouds
10:54 AM 45.1 °F 37.6 °F 31.5 °F 59% 30.16 in 10.0 mi NW 18.4 mph 28.8 mph N/A   Scattered Clouds
11:14 AM 45.5 °F 37.3 °F 31.1 °F 57% 30.16 in 10.0 mi NW 21.9 mph 29.9 mph N/A   Mostly Cloudy
11:34 AM 45.5 °F 38.3 °F 31.6 °F 58% 30.17 in 10.0 mi WNW 17.3 mph 31.1 mph N/A   Mostly Cloudy
11:54 AM 46.0 °F 38.3 °F 31.6 °F 57% 30.17 in 10.0 mi WNW 20.7 mph 26.5 mph N/A   Mostly Cloudy
12:14 PM 46.0 °F 38.3 °F 31.1 °F 56% 30.17 in 10.0 mi WNW 20.7 mph 28.8 mph N/A   Overcast
12:34 PM 45.9 °F 40.0 °F 31.8 °F 58% 30.17 in 10.0 mi NW 12.7 mph 21.9 mph N/A   Mostly Cloudy
12:54 PM 46.6 °F - 31.8 °F 56% 30.18 in 10.0 mi WNW 20.7 mph 29.9 mph N/A   Mostly Cloudy
1:14 PM 47.3 °F - 30.7 °F 53% 30.18 in 10.0 mi WNW 17.3 mph 24.2 mph N/A   Mostly Cloudy
1:34 PM 47.1 °F - 30.2 °F 52% 30.19 in 10.0 mi WNW 15.0 mph 24.2 mph N/A   Overcast
1:54 PM 48.6 °F - 29.5 °F 48% 30.19 in 10.0 mi WNW 23.0 mph 28.8 mph N/A   Overcast
2:14 PM 48.4 °F - 29.1 °F 47% 30.20 in 10.0 mi WNW 18.4 mph 25.3 mph N/A   Mostly Cloudy
2:34 PM 47.7 °F - 28.6 °F 48% 30.20 in 10.0 mi WNW 12.7 mph 23.0 mph N/A   Scattered Clouds
2:54 PM 47.7 °F - 28.8 °F 48% 30.20 in 10.0 mi NW 15.0 mph 20.7 mph N/A   Scattered Clouds
3:14 PM 47.7 °F - 28.0 °F 47% 30.21 in 10.0 mi WNW 15.0 mph 21.9 mph N/A   Scattered Clouds
3:34 PM 46.4 °F 40.4 °F 27.5 °F 48% 30.21 in 10.0 mi WNW 13.8 mph 18.4 mph N/A   Scattered Clouds
3:54 PM 46.9 °F - 28.6 °F 49% 30.22 in 10.0 mi West 13.8 mph 18.4 mph N/A   Mostly Cloudy
4:14 PM 46.0 °F 39.9 °F 28.4 °F 50% 30.22 in 10.0 mi WNW 13.8 mph - N/A   Scattered Clouds
4:34 PM 44.6 °F 38.8 °F 28.0 °F 52% 30.22 in 10.0 mi WNW 11.5 mph - N/A   Scattered Clouds
4:54 PM 44.6 °F 39.2 °F 28.4 °F 53% 30.23 in 10.0 mi West 10.4 mph - N/A   Clear
5:14 PM 43.5 °F 37.9 °F 28.4 °F 55% 30.24 in 10.0 mi West 10.4 mph - N/A   Clear
5:34 PM 42.4 °F 37.5 °F 28.6 °F 58% 30.24 in 10.0 mi West 8.1 mph - N/A   Clear
5:54 PM 41.9 °F 37.5 °F 28.9 °F 60% 30.24 in 10.0 mi West 6.9 mph - N/A   Clear
6:14 PM 38.3 °F 33.2 °F 29.3 °F 70% 30.24 in 10.0 mi WSW 6.9 mph - N/A   Scattered Clouds
6:34 PM 37.8 °F 33.3 °F 29.8 °F 73% 30.24 in 10.0 mi West 5.8 mph - N/A   Scattered Clouds
6:54 PM 36.3 °F 31.6 °F 29.5 °F 76% 30.24 in 10.0 mi West 5.8 mph - N/A   Clear
7:14 PM 36.5 °F 31.0 °F 29.8 °F 77% 30.25 in 10.0 mi WSW 6.9 mph - N/A   Clear
7:34 PM 35.1 °F 30.1 °F 29.8 °F 81% 30.24 in 10.0 mi WSW 5.8 mph - N/A   Clear
7:54 PM 35.1 °F 30.1 °F 29.5 °F 80% 30.25 in 10.0 mi WSW 5.8 mph - N/A   Clear
8:14 PM 35.6 °F 32.8 °F 29.8 °F 80% 30.24 in 10.0 mi WSW 3.5 mph - N/A   Clear
8:34 PM 33.8 °F 29.6 °F 29.1 °F 83% 30.24 in 10.0 mi SW 4.6 mph - N/A   Clear
8:54 PM 34.2 °F 30.0 °F 29.1 °F 82% 30.24 in 10.0 mi SW 4.6 mph - N/A   Clear
9:14 PM 33.8 °F 28.6 °F 29.1 °F 83% 30.24 in 10.0 mi SSW 5.8 mph - N/A   Clear
9:34 PM 35.2 °F 31.2 °F 30.2 °F 82% 30.23 in 10.0 mi SSW 4.6 mph - N/A   Clear
9:54 PM 34.3 °F 30.2 °F 30.0 °F 84% 30.24 in 10.0 mi SSW 4.6 mph - N/A   Clear
10:14 PM 35.6 °F 29.9 °F 30.9 °F 83% 30.22 in 10.0 mi South 6.9 mph - N/A   Scattered Clouds
10:34 PM 36.3 °F 30.8 °F 31.1 °F 81% 30.21 in 10.0 mi South 6.9 mph - N/A   Mostly Cloudy
10:54 PM 36.1 °F 32.3 °F 31.6 °F 84% 30.21 in 10.0 mi SSW 4.6 mph - N/A   Scattered Clouds
11:14 PM 36.7 °F 32.0 °F 32.0 °F 83% 30.21 in 10.0 mi SSW 5.8 mph - N/A   Mostly Cloudy
11:34 PM 37.4 °F 32.1 °F 32.0 °F 81% 30.20 in 10.0 mi SSW 6.9 mph - N/A   Mostly Cloudy
11:54 PM 37.8 °F 31.8 °F 32.0 °F 80% 30.18 in 10.0 mi SSW 8.1 mph - N/A   Overcast